Regional Weather Roundup
Issued by NWS Upton, NY

Current Version | Previous Version | Graphics & Text | Print | Product List | Glossary Off
Versions: 1 2 3 4 5 6 7 8 9 10 11 12 13 14 15 16 17 18 19 20 21 22 23 24 25 26 27 28 29 30 31 32 33 34 35 36 37 38 39 40 41 42 43 44 45 46 47 48 49 50

000
ASUS41 KOKX 311305
RWROKX

REGIONAL WEATHER ROUNDUP
NATIONAL WEATHER SERVICE NEW YORK NY
900 AM EDT THU JUL 31 2014

NOTE: "FAIR" INDICATES FEW OR NO CLOUDS BELOW 12,000 FEET WITH NO
SIGNIFICANT WEATHER AND/OR OBSTRUCTIONS TO VISIBILITY.

NYZ071-072-176-178-NJZ106-104-311400-
NEW YORK CITY METRO AREA


CITY           SKY/WX    TMP DP  RH WIND       PRES   REMARKS
CENTRAL PARK   PTSUNNY   71  56  58 VRB6G20   30.14R
LAGUARDIA APRT PTSUNNY   74  55  51 SW12      30.10R
KENNEDY INTL   PTSUNNY   73  59  61 S8        30.12S
NEWARK/LIBERTY LGT RAIN  70  58  65 W5G17     30.11R
BRNX BOT. GARD   N/A     72  55  56 SW17      30.11S
TETERBORO      LGT RAIN  72  57  59 SW10      30.11R
$$

NYZ177-179-078>081-311400-
LONG ISLAND NEW YORK

CITY           SKY/WX    TMP DP  RH WIND       PRES   REMARKS
FARMINGDALE    SUNNY     73  56  54 SW9       30.11S
ISLIP          SUNNY     76  59  55 SW10      30.10S
SHIRLEY        SUNNY     74  62  66 VRB6      30.12S
WESTHAMPTON    SUNNY     75  60  59 W9        30.13S
MONTAUK POINT    N/A     74  65  73 SW5       30.12S
$$

NYZ052-065-067-311400-
HUDSON VALLEY

CITY           SKY/WX    TMP DP  RH WIND       PRES   REMARKS
WHITE PLAINS   LGT RAIN  71  59  65 W8        30.11R
NEWBURGH       CLOUDY    64  59  82 CALM      30.11S
MONTGOMERY     CLOUDY    62  58  86 CALM      30.09S
POUGHKEEPSIE   CLOUDY    64  59  83 SE3       30.08F
ALBANY         CLOUDY    64  57  78 S8        30.07S
$$

NJZ001-105-106-008-010-013-015-019>022-104-311400-
NEW JERSEY

CITY           SKY/WX    TMP DP  RH WIND       PRES   REMARKS
NEWARK/LIBERTY LGT RAIN  70  58  65 W5G17     30.11R
TETERBORO      LGT RAIN  72  57  59 SW10      30.11R
CALDWELL       CLOUDY    63  58  83 CALM      30.11S
MORRISTOWN     PTSUNNY   66  61  82 CALM      30.12R
SOMERVILLE     MOSUNNY   65  59  81 CALM      30.09S
LINDEN         CLOUDY    71  59  66 CALM      30.12F
SUSSEX         PTSUNNY   66  59  78 CALM      30.10S
ANDOVER          N/A     65  58  78 SW6       30.11R
TRENTON        CLOUDY    68  59  73 S6        30.11S
MILLVILLE      SUNNY     74  65  73 SW8       30.13R
ATLANTIC CITY  SUNNY     73  59  61 SW8       30.13R
WRIGHTSTOWN    CLOUDY    69  60  73 S5        30.10S
TOMS RIVER     MOSUNNY   73  59  60 SW9       30.13R
BELMAR         PTSUNNY   72  59  64 SW6       30.12S
$$

PAZ047>061-062-071-311400-
EASTERN PENNSYLVANIA

CITY           SKY/WX    TMP DP  RH WIND       PRES   REMARKS
PHILADELPHIA   MOSUNNY   72  60  66 S9        30.11S
ALLENTOWN      MOSUNNY   69  57  65 CALM      30.10S
SCRANTON       PTSUNNY   65  58  78 CALM      30.09S
$$

CTZ002-004>006-009-010-012-RIZ004-006-007-MAZ004-011-015-311400-
SOUTHERN NEW ENGLAND
 IN CT

CITY           SKY/WX    TMP DP  RH WIND       PRES   REMARKS
BRADLEY INTL   PTSUNNY   67  59  75 SW3       30.09S
HARTFORD       MOSUNNY   71  62  73 SE5       30.09S
DANBURY        PTSUNNY   68  58  70 CALM      30.12S
WTRBRY/OXFORD  MOSUNNY   68  55  64 S6        30.14R
BRIDGEPORT     SUNNY     72  63  73 S7        30.10S
MERIDEN        SUNNY     70  62  76 SE5       30.10S
NEW HAVEN      MOSUNNY   74  64  71 S7        30.10S
CHESTER        FAIR      72  61  68 SW5       30.12S
GROTON         MOSUNNY   71  67  87 S6        30.10S
WILLIMANTIC    MOSUNNY   66  59  78 CALM      30.12S

 IN RI

CITY           SKY/WX    TMP DP  RH WIND       PRES   REMARKS
PROVIDENCE     MOSUNNY   71  63  75 S5        30.11F
BLOCK ISLAND   SUNNY     72  63  73 S9        30.12S
WESTERLY       SUNNY     73  64  73 S8        30.12S

 IN MA

CITY           SKY/WX    TMP DP  RH WIND       PRES   REMARKS
BOSTON         MOSUNNY   70  62  76 SE7       30.10S
WORCESTER      SUNNY     67  58  72 S7        30.12S
WESTFIELD      PTSUNNY   65  58  78 CALM      30.09S
PROVINCETOWN   SUNNY     72  63  73 SW12      30.13S
NANTUCKET      SUNNY     69  64  84 S6        30.14R
$$

ANZ330-335-338-340-345-350-353-355-311400-
COASTAL MARINE OBSERVATIONS


STATION/POSITION TIME  SKY/WX   TEMP    WIND        PRES    VSBY  WAVE
                                AIR SEA DIR/SP/G                  HT/PER
                 (UTC)          (F)     (DEG/KT/KT) (MB)    (MI)  (FT/S)
NY HARB ENTRANCE NOT AVBL
4S FIRE IS       NOT AVBL
23SW MTP         1300            72 70              1019.4          4/ 8
HUDSON CANYON    1300            73 74  260/  6/  8 1020.0          3/ 8
EXECUTION ROCKS  1300            76 70  220/ 10/ 12   N/A
WESTERN LI SOUND 1300            71     210/  8/ 10   N/A           0
CENTRAL LI SOUND 1200            71 72  230/  6/  8   N/A           1
EASTERN LI SOUND 1200            72 68  220/  6/  6   N/A
ROBBINS REEF     1300            71     240/  9/ 12   N/A
$$


>>>>>>>>>>>>>>>>>>>>>>>>>>>> KEY <<<<<<<<<<<<<<<<<<<<<<<<<<<
>                                                          <
>     SKY/WX - SKY CONDITION/PRESENT WEATHER               <
>     TMP    - TEMPERATURE IN FAHRENHEIT                   <
>     DP     - DEWPOINT IN FAHRENHEIT                      <
>     RH     - RELATIVE HUMIDITY IN PERCENT                <
>     WIND   - DIRECTION AND SPEED IN MPH                  <
>     PRES   - MEAN SEA LEVEL PRESSURE IN INCHES OF HG     <
>     WCI    - WIND CHILL INDEX                            <
>     VSB    - VISIBILITY IN MILES                         <
>     HX     - HEAT INDEX                                  <
>     TC     - TEMPERATURE IN CELSIUS                      <
>     VRB    - VARIABLE WIND DIRECTION                     <
>                                                          <
>>>>>>>>>>>>>>>>>>>>>>>>>>>> KEY <<<<<<<<<<<<<<<<<<<<<<<<<<<




USA.gov is the U.S. government's official web portal to all federal, state and local government web resources and services.